owner,sensor,date,latitude,longitude,vertical_datum,direction_of_sea_water_velocity,sea_water_speed,upward_sea_water_velocity,qcFlag 
TABS,ioos:station:wmo:42043:1,1998-05-01T00:00:00Z,28.9818,-94.9186,2.0,235.3684734,17.5614037,-99999.0,'11111222,11111222,99999999' 
TABS,ioos:station:wmo:42043:1,1998-05-01T00:30:00Z,28.9818,-94.9186,2.0,237.2061626,15.95235719,-99999.0,'11111222,11111222,99999999' 
TABS,ioos:station:wmo:42043:1,1998-05-01T01:00:00Z,28.9818,-94.9186,2.0,238.1208814,14.39056635,-99999.0,'11111222,11111222,99999999' 
TABS,ioos:station:wmo:42043:1,1998-05-01T01:30:00Z,28.9818,-94.9186,2.0,235.4748202,14.46811667,-99999.0,'11111222,11111222,99999999' 
TABS,ioos:station:wmo:42043:1,1998-05-01T02:00:00Z,28.9818,-94.9186,2.0,232.8417589,12.33415583,-99999.0,'11111222,11111222,99999999' 
TABS,ioos:station:wmo:42043:1,1998-05-01T02:30:00Z,28.9818,-94.9186,2.0,228.4719425,12.14210031,-99999.0,'11111222,11111222,99999999' 
TABS,ioos:station:wmo:42043:1,1998-05-01T03:00:00Z,28.9818,-94.9186,2.0,226.3095699,9.279665942,-99999.0,'11133222,11111222,99999999' 
TABS,ioos:station:wmo:42043:1,1998-05-01T03:30:00Z,28.9818,-94.9186,2.0,213.9975062,8.262378592,-99999.0,'11133222,11111222,99999999' 
TABS,ioos:station:wmo:42043:1,1998-05-01T04:00:00Z,28.9818,-94.9186,2.0,223.407023,7.377973977,-99999.0,'11133222,11111222,99999999' 
TABS,ioos:station:wmo:42043:1,1998-05-01T04:30:00Z,28.9818,-94.9186,2.0,221.9656518,8.015684625,-99999.0,'11133222,11111222,99999999' 
TABS,ioos:station:wmo:42043:1,1998-05-01T05:00:00Z,28.9818,-94.9186,2.0,211.3343585,7.153355856,-99999.0,'11133222,11111222,99999999' 
TABS,ioos:station:wmo:42043:1,1998-05-01T05:30:00Z,28.9818,-94.9186,2.0,209.9202908,6.876518014,-99999.0,'11133222,11111222,99999999' 
TABS,ioos:station:wmo:42043:1,1998-05-01T06:00:00Z,28.9818,-94.9186,2.0,213.9992425,7.189019405,-99999.0,'11133222,11111222,99999999' 
TABS,ioos:station:wmo:42043:1,1998-05-01T06:30:00Z,28.9818,-94.9186,2.0,205.2677403,5.927098784,-99999.0,'11133222,11111222,99999999' 
TABS,ioos:station:wmo:42043:1,1998-05-01T07:00:00Z,28.9818,-94.9186,2.0,208.4057905,6.264223815,-99999.0,'11133222,11111222,99999999' 
TABS,ioos:station:wmo:42043:1,1998-05-01T07:30:00Z,28.9818,-94.9186,2.0,212.8226047,5.497708614,-99999.0,'11133222,11111222,99999999' 
TABS,ioos:station:wmo:42043:1,1998-05-01T08:00:00Z,28.9818,-94.9186,2.0,202.5892342,5.805385431,-99999.0,'11133222,11111222,99999999' 
TABS,ioos:station:wmo:42043:1,1998-05-01T08:30:00Z,28.9818,-94.9186,2.0,200.8161286,6.697163579,-99999.0,'11133222,11111222,99999999' 
TABS,ioos:station:wmo:42043:1,1998-05-01T09:00:00Z,28.9818,-94.9186,2.0,200.568949,5.094801272,-99999.0,'11133222,11111222,99999999' 
TABS,ioos:station:wmo:42043:1,1998-05-01T09:30:00Z,28.9818,-94.9186,2.0,206.5167118,5.330787934,-99999.0,'11133222,11111222,99999999' 
TABS,ioos:station:wmo:42043:1,1998-05-01T10:00:00Z,28.9818,-94.9186,2.0,192.9871735,5.962524633,-99999.0,'11133222,11111222,99999999' 
TABS,ioos:station:wmo:42043:1,1998-05-01T10:30:00Z,28.9818,-94.9186,2.0,201.8580077,5.613572837,-99999.0,'11133222,11111222,99999999' 
TABS,ioos:station:wmo:42043:1,1998-05-01T11:00:00Z,28.9818,-94.9186,2.0,194.3194643,7.843698107,-99999.0,'11133222,11111222,99999999' 
TABS,ioos:station:wmo:42043:1,1998-05-01T11:30:00Z,28.9818,-94.9186,2.0,188.275663,7.22524048,-99999.0,'11133222,11111222,99999999' 
TABS,ioos:station:wmo:42043:1,1998-05-01T12:00:00Z,28.9818,-94.9186,2.0,188.275663,7.22524048,-99999.0,'11133222,11111222,99999999' 
TABS,ioos:station:wmo:42043:1,1998-05-01T12:30:00Z,28.9818,-94.9186,2.0,201.503829,6.083461186,-99999.0,'11133222,11111222,99999999' 
TABS,ioos:station:wmo:42043:1,1998-05-01T13:00:00Z,28.9818,-94.9186,2.0,206.5340076,8.327118349,-99999.0,'11133222,11111222,99999999' 
TABS,ioos:station:wmo:42043:1,1998-05-01T13:30:00Z,28.9818,-94.9186,2.0,199.1822195,6.786825473,-99999.0,'11133222,11111222,99999999' 
TABS,ioos:station:wmo:42043:1,1998-05-01T14:00:00Z,28.9818,-94.9186,2.0,218.8420133,7.844647857,-99999.0,'11133222,11111222,99999999' 
TABS,ioos:station:wmo:42043:1,1998-05-01T14:30:00Z,28.9818,-94.9186,2.0,200.5470044,7.635764533,-99999.0,'11133222,11111222,99999999' 
TABS,ioos:station:wmo:42043:1,1998-05-01T15:00:00Z,28.9818,-94.9186,2.0,215.7818397,7.901423922,-99999.0,'11133222,11111222,99999999' 
TABS,ioos:station:wmo:42043:1,1998-05-01T15:30:00Z,28.9818,-94.9186,2.0,191.2504447,3.792888082,-99999.0,'11133222,11111222,99999999' 
TABS,ioos:station:wmo:42043:1,1998-05-01T16:00:00Z,28.9818,-94.9186,2.0,209.4921197,3.940621778,-99999.0,'11133222,11111222,99999999' 
TABS,ioos:station:wmo:42043:1,1998-05-01T16:30:00Z,28.9818,-94.9186,2.0,212.0483562,2.807935184,-99999.0,'11133222,11111222,99999999' 
TABS,ioos:station:wmo:42043:1,1998-05-01T17:00:00Z,28.9818,-94.9186,2.0,184.4210686,1.945790328,-99999.0,'11133222,11111222,99999999' 
TABS,ioos:station:wmo:42043:1,1998-05-01T17:30:00Z,28.9818,-94.9186,2.0,195.059028,2.309307255,-99999.0,'11133222,11111222,99999999' 
TABS,ioos:station:wmo:42043:1,1998-05-01T18:00:00Z,28.9818,-94.9186,2.0,188.1682491,2.111421322,-99999.0,'11133222,11111222,99999999' 
TABS,ioos:station:wmo:42043:1,1998-05-01T18:30:00Z,28.9818,-94.9186,2.0,173.6126875,1.348369386,-99999.0,'11133222,11111222,99999999' 
TABS,ioos:station:wmo:42043:1,1998-05-01T19:00:00Z,28.9818,-94.9186,2.0,163.9090108,1.08240473,-99999.0,'11133222,11111222,99999999' 
TABS,ioos:station:wmo:42043:1,1998-05-01T19:30:00Z,28.9818,-94.9186,2.0,128.3263794,4.563474553,-99999.0,'11133222,11111222,99999999' 
TABS,ioos:station:wmo:42043:1,1998-05-01T20:00:00Z,28.9818,-94.9186,2.0,160.5137055,7.584418237,-99999.0,'11133222,11111222,99999999' 
TABS,ioos:station:wmo:42043:1,1998-05-01T20:30:00Z,28.9818,-94.9186,2.0,155.5980211,9.004354502,-99999.0,'11133222,11111222,99999999' 
TABS,ioos:station:wmo:42043:1,1998-05-01T21:00:00Z,28.9818,-94.9186,2.0,176.9762767,14.02952957,-99999.0,'11111222,11111222,99999999' 
TABS,ioos:station:wmo:42043:1,1998-05-01T21:30:00Z,28.9818,-94.9186,2.0,187.9058963,15.19442661,-99999.0,'11111222,11111222,99999999' 
TABS,ioos:station:wmo:42043:1,1998-05-01T22:00:00Z,28.9818,-94.9186,2.0,187.6783531,16.68965248,-99999.0,'11111222,11111222,99999999' 
TABS,ioos:station:wmo:42043:1,1998-05-01T22:30:00Z,28.9818,-94.9186,2.0,189.3705265,16.45964763,-99999.0,'11111222,11111222,99999999' 
TABS,ioos:station:wmo:42043:1,1998-05-01T23:00:00Z,28.9818,-94.9186,2.0,190.8591412,18.20602373,-99999.0,'11111222,11111222,99999999' 
TABS,ioos:station:wmo:42043:1,1998-05-01T23:30:00Z,28.9818,-94.9186,2.0,194.2742856,16.91215539,-99999.0,'11111222,11111222,99999999' 
TABS,ioos:station:wmo:42043:1,1998-05-02T00:00:00Z,28.9818,-94.9186,2.0,196.2263911,17.07000293,-99999.0,'11111222,11111222,99999999' 
TABS,ioos:station:wmo:42043:1,1998-05-02T00:30:00Z,28.9818,-94.9186,2.0,208.4588604,18.13100108,-99999.0,'11111222,11111222,99999999' 
TABS,ioos:station:wmo:42043:1,1998-05-02T01:00:00Z,28.9818,-94.9186,2.0,210.2511733,16.5543227,-99999.0,'11111222,11111222,99999999' 
TABS,ioos:station:wmo:42043:1,1998-05-02T01:30:00Z,28.9818,-94.9186,2.0,210.4751513,14.68938733,-99999.0,'11111222,11111222,99999999' 
TABS,ioos:station:wmo:42043:1,1998-05-02T02:00:00Z,28.9818,-94.9186,2.0,214.396381,13.7187791,-99999.0,'11111222,11111222,99999999' 
TABS,ioos:station:wmo:42043:1,1998-05-02T02:30:00Z,28.9818,-94.9186,2.0,214.0322665,14.38363306,-99999.0,'11111222,11111222,99999999' 
TABS,ioos:station:wmo:42043:1,1998-05-02T03:00:00Z,28.9818,-94.9186,2.0,235.3545363,12.31328145,-99999.0,'11111222,11111222,99999999' 
TABS,ioos:station:wmo:42043:1,1998-05-02T03:30:00Z,28.9818,-94.9186,2.0,230.1654475,12.80112886,-99999.0,'11111222,11111222,99999999' 
TABS,ioos:station:wmo:42043:1,1998-05-02T04:00:00Z,28.9818,-94.9186,2.0,227.7584126,13.07541586,-99999.0,'11111222,11111222,99999999' 
TABS,ioos:station:wmo:42043:1,1998-05-02T04:30:00Z,28.9818,-94.9186,2.0,223.7084028,13.80623048,-99999.0,'11111222,11111222,99999999' 
TABS,ioos:station:wmo:42043:1,1998-05-02T05:00:00Z,28.9818,-94.9186,2.0,224.1254544,13.90333773,-99999.0,'11111222,11111222,99999999' 
TABS,ioos:station:wmo:42043:1,1998-05-02T05:30:00Z,28.9818,-94.9186,2.0,207.1808371,12.06204792,-99999.0,'11111222,11111222,99999999' 
TABS,ioos:station:wmo:42043:1,1998-05-02T06:00:00Z,28.9818,-94.9186,2.0,221.7736409,11.1829379,-99999.0,'11111222,11111222,99999999' 
TABS,ioos:station:wmo:42043:1,1998-05-02T06:30:00Z,28.9818,-94.9186,2.0,232.5396363,11.26259739,-99999.0,'11111222,11111222,99999999' 
TABS,ioos:station:wmo:42043:1,1998-05-02T07:00:00Z,28.9818,-94.9186,2.0,242.3468287,10.60087261,-99999.0,'11111222,11111222,99999999' 
TABS,ioos:station:wmo:42043:1,1998-05-02T07:30:00Z,28.9818,-94.9186,2.0,245.8045338,8.003024428,-99999.0,'11133222,11111222,99999999' 
TABS,ioos:station:wmo:42043:1,1998-05-02T08:00:00Z,28.9818,-94.9186,2.0,257.1282726,8.708828854,-99999.0,'11133222,11111222,99999999' 
TABS,ioos:station:wmo:42043:1,1998-05-02T08:30:00Z,28.9818,-94.9186,2.0,260.3515563,7.100429564,-99999.0,'11133222,11111222,99999999' 
TABS,ioos:station:wmo:42043:1,1998-05-02T09:00:00Z,28.9818,-94.9186,2.0,258.1920594,6.548564728,-99999.0,'11133222,11111222,99999999' 
TABS,ioos:station:wmo:42043:1,1998-05-02T09:30:00Z,28.9818,-94.9186,2.0,260.89965,4.678888757,-99999.0,'11133222,11111222,99999999' 
TABS,ioos:station:wmo:42043:1,1998-05-02T10:00:00Z,28.9818,-94.9186,2.0,272.2200713,3.872905886,-99999.0,'11133222,11111222,99999999' 
TABS,ioos:station:wmo:42043:1,1998-05-02T10:30:00Z,28.9818,-94.9186,2.0,297.9080309,2.862953021,-99999.0,'11133222,11111222,99999999' 
TABS,ioos:station:wmo:42043:1,1998-05-02T11:00:00Z,28.9818,-94.9186,2.0,297.5588765,3.868979194,-99999.0,'11133222,11111222,99999999' 
TABS,ioos:station:wmo:42043:1,1998-05-02T11:30:00Z,28.9818,-94.9186,2.0,312.4962707,2.427694379,-99999.0,'11133222,11111222,99999999' 
TABS,ioos:station:wmo:42043:1,1998-05-02T12:00:00Z,28.9818,-94.9186,2.0,279.5670845,0.902551938,-99999.0,'11133222,11111222,99999999' 
TABS,ioos:station:wmo:42043:1,1998-05-02T12:30:00Z,28.9818,-94.9186,2.0,0.0,0.0,-99999.0,'11133222,11111222,99999999' 
TABS,ioos:station:wmo:42043:1,1998-05-02T13:00:00Z,28.9818,-94.9186,2.0,90.0,1.04,-99999.0,'11133222,11111222,99999999' 
TABS,ioos:station:wmo:42043:1,1998-05-02T13:30:00Z,28.9818,-94.9186,2.0,98.79052263,1.963058838,-99999.0,'11133222,11111222,99999999' 
TABS,ioos:station:wmo:42043:1,1998-05-02T14:00:00Z,28.9818,-94.9186,2.0,90.0,2.53,-99999.0,'11133222,11111222,99999999' 
TABS,ioos:station:wmo:42043:1,1998-05-02T14:30:00Z,28.9818,-94.9186,2.0,99.92217027,3.48208271,-99999.0,'11133222,11111222,99999999' 
TABS,ioos:station:wmo:42043:1,1998-05-02T15:00:00Z,28.9818,-94.9186,2.0,98.48892403,4.064529493,-99999.0,'11133222,11111222,99999999' 
TABS,ioos:station:wmo:42043:1,1998-05-02T15:30:00Z,28.9818,-94.9186,2.0,104.3837335,5.998016339,-99999.0,'11133222,11111222,99999999' 
TABS,ioos:station:wmo:42043:1,1998-05-02T16:00:00Z,28.9818,-94.9186,2.0,105.6024166,6.655238538,-99999.0,'11133222,11111222,99999999' 
TABS,ioos:station:wmo:42043:1,1998-05-02T16:30:00Z,28.9818,-94.9186,2.0,117.4869815,8.059832504,-99999.0,'11133222,11111222,99999999' 
TABS,ioos:station:wmo:42043:1,1998-05-02T17:00:00Z,28.9818,-94.9186,2.0,129.0040652,8.055588123,-99999.0,'11133222,11111222,99999999' 
TABS,ioos:station:wmo:42043:1,1998-05-02T17:30:00Z,28.9818,-94.9186,2.0,138.7969455,9.503162631,-99999.0,'11133222,11111222,99999999' 
TABS,ioos:station:wmo:42043:1,1998-05-02T18:00:00Z,28.9818,-94.9186,2.0,139.7168058,11.52243898,-99999.0,'11111222,11111222,99999999' 
TABS,ioos:station:wmo:42043:1,1998-05-02T18:30:00Z,28.9818,-94.9186,2.0,140.9745341,14.19804564,-99999.0,'11111222,11111222,99999999' 
TABS,ioos:station:wmo:42043:1,1998-05-02T19:00:00Z,28.9818,-94.9186,2.0,147.0683601,15.08362026,-99999.0,'11111222,11111222,99999999' 
TABS,ioos:station:wmo:42043:1,1998-05-02T19:30:00Z,28.9818,-94.9186,2.0,149.214358,15.43494736,-99999.0,'11111222,11111222,99999999' 
TABS,ioos:station:wmo:42043:1,1998-05-02T20:00:00Z,28.9818,-94.9186,2.0,155.0491016,14.12861281,-99999.0,'11111222,11111222,99999999' 
TABS,ioos:station:wmo:42043:1,1998-05-02T20:30:00Z,28.9818,-94.9186,2.0,160.6278136,11.21493647,-99999.0,'11111222,11111222,99999999' 
TABS,ioos:station:wmo:42043:1,1998-05-02T21:00:00Z,28.9818,-94.9186,2.0,180.8608817,9.981127191,-99999.0,'11133222,11111222,99999999' 
TABS,ioos:station:wmo:42043:1,1998-05-02T21:30:00Z,28.9818,-94.9186,2.0,186.3198745,9.447417637,-99999.0,'11133222,11111222,99999999' 
TABS,ioos:station:wmo:42043:1,1998-05-02T22:00:00Z,28.9818,-94.9186,2.0,191.7403276,10.95927917,-99999.0,'11111222,11111222,99999999' 
TABS,ioos:station:wmo:42043:1,1998-05-02T22:30:00Z,28.9818,-94.9186,2.0,200.709333,11.79193792,-99999.0,'11111222,11111222,99999999' 
TABS,ioos:station:wmo:42043:1,1998-05-02T23:00:00Z,28.9818,-94.9186,2.0,213.1331503,12.27609466,-99999.0,'11111222,11111222,99999999' 
TABS,ioos:station:wmo:42043:1,1998-05-02T23:30:00Z,28.9818,-94.9186,2.0,213.9074107,10.95263439,-99999.0,'11111222,11111222,99999999' 
TABS,ioos:station:wmo:42043:1,1998-05-03T00:00:00Z,28.9818,-94.9186,2.0,222.001064,12.03021612,-99999.0,'11111222,11111222,99999999' 
TABS,ioos:station:wmo:42043:1,1998-05-03T00:30:00Z,28.9818,-94.9186,2.0,230.5620047,11.9640127,-99999.0,'11111222,11111222,99999999' 
TABS,ioos:station:wmo:42043:1,1998-05-03T01:00:00Z,28.9818,-94.9186,2.0,230.1012295,11.84854843,-99999.0,'11111222,11111222,99999999' 
TABS,ioos:station:wmo:42043:1,1998-05-03T01:30:00Z,28.9818,-94.9186,2.0,232.8529792,11.59213526,-99999.0,'11111222,11111222,99999999' 
TABS,ioos:station:wmo:42043:1,1998-05-03T02:00:00Z,28.9818,-94.9186,2.0,232.1296118,10.19755363,-99999.0,'11111222,11111222,99999999' 
TABS,ioos:station:wmo:42043:1,1998-05-03T02:30:00Z,28.9818,-94.9186,2.0,224.9996843,9.277240969,-99999.0,'11133222,11111222,99999999' 
TABS,ioos:station:wmo:42043:1,1998-05-03T03:00:00Z,28.9818,-94.9186,2.0,232.6929605,7.870228713,-99999.0,'11133222,11111222,99999999' 
TABS,ioos:station:wmo:42043:1,1998-05-03T03:30:00Z,28.9818,-94.9186,2.0,224.9996843,7.170062761,-99999.0,'11133222,11111222,99999999' 
TABS,ioos:station:wmo:42043:1,1998-05-03T04:00:00Z,28.9818,-94.9186,2.0,211.9942996,5.624348851,-99999.0,'11133222,11111222,99999999' 
TABS,ioos:station:wmo:42043:1,1998-05-03T04:30:00Z,28.9818,-94.9186,2.0,238.7538512,4.877478857,-99999.0,'11133222,11111222,99999999' 
TABS,ioos:station:wmo:42043:1,1998-05-03T05:00:00Z,28.9818,-94.9186,2.0,230.7483343,4.235658154,-99999.0,'11133222,11111222,99999999' 
TABS,ioos:station:wmo:42043:1,1998-05-03T05:30:00Z,28.9818,-94.9186,2.0,227.7433829,4.431568571,-99999.0,'11133222,11111222,99999999' 
TABS,ioos:station:wmo:42043:1,1998-05-03T06:00:00Z,28.9818,-94.9186,2.0,217.2484578,3.93208596,-99999.0,'11133222,11111222,99999999' 
TABS,ioos:station:wmo:42043:1,1998-05-03T06:30:00Z,28.9818,-94.9186,2.0,254.1267772,3.254074369,-99999.0,'11133222,11111222,99999999' 
TABS,ioos:station:wmo:42043:1,1998-05-03T07:00:00Z,28.9818,-94.9186,2.0,236.3835202,2.14946505,-99999.0,'11133222,11111222,99999999' 
TABS,ioos:station:wmo:42043:1,1998-05-03T07:30:00Z,28.9818,-94.9186,2.0,222.4956393,2.427694379,-99999.0,'11133222,11111222,99999999' 
TABS,ioos:station:wmo:42043:1,1998-05-03T08:00:00Z,28.9818,-94.9186,2.0,183.84796,2.23503915,-99999.0,'11133222,11111222,99999999' 
TABS,ioos:station:wmo:42043:1,1998-05-03T08:30:00Z,28.9818,-94.9186,2.0,176.6067864,2.53444274,-99999.0,'11133222,11111222,99999999' 
TABS,ioos:station:wmo:42043:1,1998-05-03T09:00:00Z,28.9818,-94.9186,2.0,179.9997895,1.49,-99999.0,'11133222,11111222,99999999' 
TABS,ioos:station:wmo:42043:1,1998-05-03T09:30:00Z,28.9818,-94.9186,2.0,167.2861871,3.362439591,-99999.0,'11133222,11111222,99999999' 
TABS,ioos:station:wmo:42043:1,1998-05-03T10:00:00Z,28.9818,-94.9186,2.0,172.8353979,3.608171282,-99999.0,'11133222,11111222,99999999' 
TABS,ioos:station:wmo:42043:1,1998-05-03T10:30:00Z,28.9818,-94.9186,2.0,160.3373079,4.428205054,-99999.0,'11133222,11111222,99999999' 
TABS,ioos:station:wmo:42043:1,1998-05-03T11:00:00Z,28.9818,-94.9186,2.0,162.0749206,5.328648984,-99999.0,'11133222,11111222,99999999' 
TABS,ioos:station:wmo:42043:1,1998-05-03T11:30:00Z,28.9818,-94.9186,2.0,144.4491997,5.125358524,-99999.0,'11133222,11111222,99999999' 
TABS,ioos:station:wmo:42043:1,1998-05-03T12:00:00Z,28.9818,-94.9186,2.0,82.52576621,3.45939301,-99999.0,'11133222,11111222,99999999' 
TABS,ioos:station:wmo:42043:1,1998-05-03T12:30:00Z,28.9818,-94.9186,2.0,119.3805392,2.731300057,-99999.0,'11133222,11111222,99999999' 
TABS,ioos:station:wmo:42043:1,1998-05-03T13:00:00Z,28.9818,-94.9186,2.0,108.3707449,2.823915721,-99999.0,'11133222,11111222,99999999' 
TABS,ioos:station:wmo:42043:1,1998-05-03T13:30:00Z,28.9818,-94.9186,2.0,141.2461958,2.859545418,-99999.0,'11133222,11111222,99999999' 
TABS,ioos:station:wmo:42043:1,1998-05-03T14:00:00Z,28.9818,-94.9186,2.0,134.9998948,3.153696244,-99999.0,'11133222,11111222,99999999' 
TABS,ioos:station:wmo:42043:1,1998-05-03T14:30:00Z,28.9818,-94.9186,2.0,141.9979045,4.352849641,-99999.0,'11133222,11111222,99999999' 
TABS,ioos:station:wmo:42043:1,1998-05-03T15:00:00Z,28.9818,-94.9186,2.0,142.0509646,3.398602654,-99999.0,'11133222,11111222,99999999' 
TABS,ioos:station:wmo:42043:1,1998-05-03T15:30:00Z,28.9818,-94.9186,2.0,132.1183178,4.219691932,-99999.0,'11133222,11111222,99999999' 
TABS,ioos:station:wmo:42043:1,1998-05-03T16:00:00Z,28.9818,-94.9186,2.0,134.9998948,4.850752519,-99999.0,'11133222,11111222,99999999' 
TABS,ioos:station:wmo:42043:1,1998-05-03T16:30:00Z,28.9818,-94.9186,2.0,129.2512448,4.235658154,-99999.0,'11133222,11111222,99999999' 
TABS,ioos:station:wmo:42043:1,1998-05-03T17:00:00Z,28.9818,-94.9186,2.0,131.4031861,4.959516105,-99999.0,'11133222,11111222,99999999' 
TABS,ioos:station:wmo:42043:1,1998-05-03T17:30:00Z,28.9818,-94.9186,2.0,182.1366954,4.022797534,-99999.0,'11133222,11111222,99999999' 
TABS,ioos:station:wmo:42043:1,1998-05-03T18:00:00Z,28.9818,-94.9186,2.0,152.7445249,5.196999134,-99999.0,'11133222,11111222,99999999' 
TABS,ioos:station:wmo:42043:1,1998-05-03T18:30:00Z,28.9818,-94.9186,2.0,171.6957481,5.123719352,-99999.0,'11133222,11111222,99999999' 
TABS,ioos:station:wmo:42043:1,1998-05-03T19:00:00Z,28.9818,-94.9186,2.0,162.5421135,2.96664794,-99999.0,'11133222,11111222,99999999' 
TABS,ioos:station:wmo:42043:1,1998-05-03T19:30:00Z,28.9818,-94.9186,2.0,143.3717656,13.74412238,-99999.0,'11111222,11111222,99999999' 
TABS,ioos:station:wmo:42043:1,1998-05-03T20:00:00Z,28.9818,-94.9186,2.0,153.4643801,8.662528499,-99999.0,'11133222,11111222,99999999' 
TABS,ioos:station:wmo:42043:1,1998-05-03T20:30:00Z,28.9818,-94.9186,2.0,156.6383039,6.002041319,-99999.0,'11133222,11111222,99999999' 
TABS,ioos:station:wmo:42043:1,1998-05-03T21:00:00Z,28.9818,-94.9186,2.0,159.2115925,4.620822438,-99999.0,'11133222,11111222,99999999' 
TABS,ioos:station:wmo:42043:1,1998-05-03T21:30:00Z,28.9818,-94.9186,2.0,160.9012574,4.095424276,-99999.0,'11133222,11111222,99999999' 
TABS,ioos:station:wmo:42043:1,1998-05-03T22:00:00Z,28.9818,-94.9186,2.0,159.4965751,2.540964384,-99999.0,'11133222,11111222,99999999' 
TABS,ioos:station:wmo:42043:1,1998-05-03T22:30:00Z,28.9818,-94.9186,2.0,159.1208215,2.076342939,-99999.0,'11133222,11111222,99999999' 
TABS,ioos:station:wmo:42043:1,1998-05-03T23:00:00Z,28.9818,-94.9186,2.0,171.83133,2.111421322,-99999.0,'11133222,11111222,99999999' 
TABS,ioos:station:wmo:42043:1,1998-05-03T23:30:00Z,28.9818,-94.9186,2.0,134.9998948,1.258650071,-99999.0,'11133222,11111222,99999999' 
TABS,ioos:station:wmo:42043:1,1998-05-04T00:00:00Z,28.9818,-94.9186,2.0,56.01391236,1.073359213,-99999.0,'11133222,11111222,99999999' 
TABS,ioos:station:wmo:42043:1,1998-05-04T00:30:00Z,28.9818,-94.9186,2.0,66.6022908,1.133181362,-99999.0,'11133222,11111222,99999999' 
TABS,ioos:station:wmo:42043:1,1998-05-04T01:00:00Z,28.9818,-94.9186,2.0,34.43124949,3.431107693,-99999.0,'11133222,11111222,99999999' 
TABS,ioos:station:wmo:42043:1,1998-05-04T01:30:00Z,28.9818,-94.9186,2.0,26.56519952,3.331741286,-99999.0,'11133222,11111222,99999999' 
TABS,ioos:station:wmo:42043:1,1998-05-04T02:00:00Z,28.9818,-94.9186,2.0,35.9154038,8.643199639,-99999.0,'11133222,11111222,99999999' 
TABS,ioos:station:wmo:42043:1,1998-05-04T02:30:00Z,28.9818,-94.9186,2.0,28.55383272,9.665635002,-99999.0,'11133222,11111222,99999999' 
TABS,ioos:station:wmo:42043:1,1998-05-04T03:00:00Z,28.9818,-94.9186,2.0,32.55417382,12.73009819,-99999.0,'11111222,11111222,99999999' 
TABS,ioos:station:wmo:42043:1,1998-05-04T03:30:00Z,28.9818,-94.9186,2.0,28.09984519,14.86176638,-99999.0,'11111222,11111222,99999999' 
TABS,ioos:station:wmo:42043:1,1998-05-04T04:00:00Z,28.9818,-94.9186,2.0,24.80881357,13.13188867,-99999.0,'11111222,11111222,99999999' 
TABS,ioos:station:wmo:42043:1,1998-05-04T04:30:00Z,28.9818,-94.9186,2.0,23.61190772,16.75251026,-99999.0,'11111222,11111222,99999999' 
TABS,ioos:station:wmo:42043:1,1998-05-04T05:00:00Z,28.9818,-94.9186,2.0,27.71864727,16.6620827,-99999.0,'11111222,11111222,99999999' 
TABS,ioos:station:wmo:42043:1,1998-05-04T05:30:00Z,28.9818,-94.9186,2.0,26.1857637,20.25922012,-99999.0,'11111222,11111222,99999999' 
TABS,ioos:station:wmo:42043:1,1998-05-04T06:00:00Z,28.9818,-94.9186,2.0,30.80053546,18.04515447,-99999.0,'11111222,11111222,99999999' 
TABS,ioos:station:wmo:42043:1,1998-05-04T06:30:00Z,28.9818,-94.9186,2.0,33.35613923,21.40624442,-99999.0,'11111222,11111222,99999999' 
TABS,ioos:station:wmo:42043:1,1998-05-04T07:00:00Z,28.9818,-94.9186,2.0,36.50156622,19.28239871,-99999.0,'11111222,11111222,99999999' 
TABS,ioos:station:wmo:42043:1,1998-05-04T07:30:00Z,28.9818,-94.9186,2.0,39.65544098,21.48338195,-99999.0,'11111222,11111222,99999999' 
TABS,ioos:station:wmo:42043:1,1998-05-04T08:00:00Z,28.9818,-94.9186,2.0,42.82212586,22.14136626,-99999.0,'11111222,11111222,99999999' 
TABS,ioos:station:wmo:42043:1,1998-05-04T08:30:00Z,28.9818,-94.9186,2.0,39.7076259,21.69460071,-99999.0,'11111222,11111222,99999999' 
TABS,ioos:station:wmo:42043:1,1998-05-04T09:00:00Z,28.9818,-94.9186,2.0,45.80501763,22.65086533,-99999.0,'11111222,11111222,99999999' 
TABS,ioos:station:wmo:42043:1,1998-05-04T09:30:00Z,28.9818,-94.9186,2.0,49.55894385,22.50770757,-99999.0,'11111222,11111222,99999999' 
TABS,ioos:station:wmo:42043:1,1998-05-04T10:00:00Z,28.9818,-94.9186,2.0,52.75075276,22.65049668,-99999.0,'11111222,11111222,99999999' 
TABS,ioos:station:wmo:42043:1,1998-05-04T10:30:00Z,28.9818,-94.9186,2.0,58.66077271,24.07205849,-99999.0,'11111222,11111222,99999999' 
TABS,ioos:station:wmo:42043:1,1998-05-04T11:00:00Z,28.9818,-94.9186,2.0,54.62376972,23.94013367,-99999.0,'11111222,11111222,99999999' 
TABS,ioos:station:wmo:42043:1,1998-05-04T11:30:00Z,28.9818,-94.9186,2.0,58.14802043,24.55811882,-99999.0,'11111222,11111222,99999999' 
TABS,ioos:station:wmo:42043:1,1998-05-04T12:00:00Z,28.9818,-94.9186,2.0,57.03561652,26.28102928,-99999.0,'11111222,11111222,99999999' 
TABS,ioos:station:wmo:42043:1,1998-05-04T12:30:00Z,28.9818,-94.9186,2.0,60.30524268,25.55612647,-99999.0,'11111222,11111222,99999999' 
TABS,ioos:station:wmo:42043:1,1998-05-04T13:00:00Z,28.9818,-94.9186,2.0,60.47099005,25.68653538,-99999.0,'11111222,11111222,99999999' 
TABS,ioos:station:wmo:42043:1,1998-05-04T13:30:00Z,28.9818,-94.9186,2.0,62.55315176,25.86095319,-99999.0,'11111222,11111222,99999999' 
TABS,ioos:station:wmo:42043:1,1998-05-04T14:00:00Z,28.9818,-94.9186,2.0,62.8908478,27.78216154,-99999.0,'11111222,11111222,99999999' 
TABS,ioos:station:wmo:42043:1,1998-05-04T14:30:00Z,28.9818,-94.9186,2.0,63.83197211,29.04722018,-99999.0,'11111222,11111222,99999999' 
TABS,ioos:station:wmo:42043:1,1998-05-04T15:00:00Z,28.9818,-94.9186,2.0,63.94429216,30.18811024,-99999.0,'11111222,11111222,99999999' 
TABS,ioos:station:wmo:42043:1,1998-05-04T15:30:00Z,28.9818,-94.9186,2.0,64.88578692,28.79189643,-99999.0,'11111222,11111222,99999999' 
TABS,ioos:station:wmo:42043:1,1998-05-04T16:00:00Z,28.9818,-94.9186,2.0,64.24591616,28.12360752,-99999.0,'11111222,11111222,99999999' 